Wolf, WY (82844)

11:07 PM MST on February 23, 2017 (GMT -0700)
Beckton | | Change Station
Active Advisory: Winter Weather Advisory

Elev 4700 ft 44.74 °N, 107.11 °W | Updated 34 seconds ago

Snow
Snow
21.4 °F
Feels Like 21 °F
N
0.0
Wind Variable Wind from South

Today
High -- | Low -- °F
--% Chance of Precip.
Yesterday
High -- | Low -- °F
Precip. -- in
Pressure 29.96 in
Visibility 4.0 miles
Clouds Overcast 2600 ft
Windchill 21 °F
Dew Point 20 °F
Humidity 96%
Rainfall 0.00 in
Snow Depth Not available.
6:56 AM 5:48 PM
Waning Crescent, 6% visible
SPECI KSHR 240603Z AUTO 13009KT 4SM -SN BR OVC026 M04/M06 A2996 RMK AO2 P0000 T10441061
Pressure 29.96 in
Visibility 4.0 miles
Clouds Overcast 2600 ft
Windchill 21 °F
Dew Point 20 °F
Humidity 96%
Rainfall 0.00 in
Snow Depth Not available.
6:56 AM 5:48 PM
Waning Crescent, 6% visible
SPECI KSHR 240603Z AUTO 13009KT 4SM -SN BR OVC026 M04/M06 A2996 RMK AO2 P0000 T10441061

Get Your Daily Forecast Email!

Thanks for signing up!

Be on the lookout for a verification email in your inbox.

You'll start receiving the daily forecast at 8 AM.

×

10-Day Weather Forecast

Almanac

Astronomy

Feb. 23, 2017 Rise Set
Actual Time
Civil Twilight
Nautical Twilight
Astronomical Twilight
Moon
Length of Visible Light
Length of Day
Tomorrow will be .
, % of the Moon is Illuminated

Today's Extremes

State Highs State Lows

Community

WunderPhotos

Upload Photos

1,962,540 photos uploaded!

WunderBlog® & News

Nearby

Air Quality

  Air Quality AQ Index Pollutant
Not available.

Snow Depth

Station Depth Elevation

Earthquake Activity

City Distance Mag. Time & Date
Minimum magnitude displayed is 2.5.

Coastal Water Temperatures

Place Temperature

Stations

Nearby Weather Stations

Station Location Temp. Windchill Dew Point Humidity Wind Precip. Elev Updated Type
                   

Watches & Warnings

Winter Weather Advisory
Issued: 2:14 PM MST Feb. 23, 2017 – National Weather Service

... Winter Weather Advisory remains in effect until noon MST
Friday...

* impacts... poor travel conditions due to slick roads and limited
visibility. Cold and wet weather may be hazardous to Young
livestock. Any wet roadways will freeze up quickly after sunset
tonight.

* Timing... through tomorrow morning.

* Additional snow accumulation... around 2 inches, locally heavier
near the mountains.

Precautionary/preparedness actions...

A Winter Weather Advisory can be issued for a variety of winter
weather conditions such as light snow... blowing snow... sleet...
freezing rain... and extreme wind chills.